This demonstration page uses our WeatherBlox Daily Observations layout. Learn more.

Left ArrowRight Arrow

39.01783, -85.05884

Hourly Observations for July 17, 2018

Temp ( °F °C ) Dew Point ( °F °C ) Humidity (%) Winds ( mph kmh ) Pressure ( in mb ) Visibility ( mi km ) Precip ( " mm )
12:52 am 00:52 Mostly Cloudy 77 25 71 21.7 82 82 VRB 5 7 29.91 1013 10 16 0.00 0.00
1:52 am 01:52 Partly Cloudy 74 23.3 72 22.2 94 94 W 6 9 29.91 1013 8 13 0.00 0.00
2:52 am 02:52 Partly Cloudy 75 23.9 71 21.7 88 88 NW 3 6 29.90 1012 9 14 0.00 0.00
3:52 am 03:52 Mostly Clear 73 22.8 71 21.7 94 94 WNW 5 7 29.90 1013 9 14 0.00 0.00
4:52 am 04:52 Clear 72 22.2 70 21.1 94 94 W 5 7 29.91 1013 9 14 0.00 0.00
5:52 am 05:52 Mostly Clear 74 23.3 71 21.7 91 91 NNW 6 9 29.92 1013 10 16 0.00 0.00
6:47 am 06:47 Mostly Cloudy 73 23 70 21 89 89 N 3 6 29.94 1014 10 16 0.00 0.00
6:52 am 06:52 Mostly Cloudy 73 22.8 70 21.1 90 90 N 5 7 29.93 1014 10 16 0.00 0.00
7:10 am 07:10 Mostly Cloudy 73 22.8 70 21.1 90 90 NNW 6 9 29.94 1014 10 16 0.00 0.00
7:52 am 07:52 Partly Cloudy 74 23.3 69 20.6 85 85 N 9 15 29.95 1014 10 16 0.00 0.00
8:52 am 08:52 Mostly Sunny 77 25 64 17.8 64 64 N 9 15 29.97 1015 10 16 0.00 0.00
9:52 am 09:52 Mostly Sunny 80 26.7 62 16.7 54 54 NNW 10 17 29.98 1015 10 16 0.00 0.00
10:52 am 10:52 Mostly Sunny 82 27.8 58 14.4 44 44 N 8 13 29.98 1015 10 16 0.00 0.00
11:52 am 11:52 Mostly Sunny 85 29.4 52 11.1 32 32 NNE 8 13 29.98 1015 10 16 0.00 0.00
12:52 pm 12:52 Mostly Sunny 87 30.6 49 9.4 27 27 NNE 14 22 29.98 1015 10 16 0.00 0.00
1:52 pm 13:52 Mostly Sunny 88 31.1 52 11.1 29 29 NNW 16 26 29.98 1015 10 16 0.00 0.00
2:52 pm 14:52 Mostly Sunny 88 31.1 53 11.7 30 30 NNW 15 24 29.96 1015 10 16 0.00 0.00
3:52 pm 15:52 Partly Cloudy 89 31.7 55 12.8 31 31 N 16 26 29.97 1015 10 16 0.00 0.00
4:52 pm 16:52 Partly Cloudy 89 31.7 55 12.8 31 31 NNW 12 19 29.96 1014 10 16 0.00 0.00
5:52 pm 17:52 Mostly Cloudy 88 31.1 56 13.3 34 34 NNW 17 28 29.95 1014 10 16 0.00 0.00
6:52 pm 18:52 Mostly Cloudy 85 29.4 56 13.3 37 37 N 14 22 29.95 1014 10 16 0.00 0.00
7:52 pm 19:52 Mostly Cloudy 85 29.4 54 12.2 35 35 NNW 13 20 29.96 1014 10 16 0.00 0.00
8:52 pm 20:52 Mostly Cloudy 81 27.2 57 13.9 44 44 N 7 11 29.97 1015 10 16 0.00 0.00
9:52 pm 21:52 Mostly Cloudy 79 26.1 58 14.4 49 49 NNW 9 15 29.99 1016 10 16 0.00 0.00
10:52 pm 22:52 Mostly Cloudy 75 23.9 59 15 58 58 N 7 11 30.01 1016 10 16 0.00 0.00
11:52 pm 23:52 Cloudy 74 23.3 58 14.4 57 57 N 6 9 30.01 1016 10 16 0.00 0.00

Powered by AerisWeather